星链-36748(STARLINK-36748)

导读

STARLINK-36748是美国太空探索技术公司(SpaceX)星链(Starlink)星座的一颗卫星,于2026年2月7日发射。星链项目计划在近地轨道部署上万颗卫星,提供全球宽带互联网服务。该卫星遵循星链第二代技术标准,配备相控阵天线与氪离子推进系统,工作在Ku、Ka频段,支持星间激光通信,旨在增强全球网络覆盖,尤其服务偏远地区与移动场景。作为批量生产部署的标准化卫星之一,它延续了星链低成本、高冗余的设计思路,助力星座扩容与服务升级。

基本信息
目录编号:
67693
目录名称:
STARLINK-36748
国际标识:
2026-025A
轨道中心:
EARTH
卫星名称:
星链-36748
卫星全名:
星链-36748(STARLINK-36748)
卫星状态:
在轨 (已飞行209 天)
发射日期:
2026-02-07 UTC
国别 :
美国 (US)
星等 :
--
轨道信息
数据来源 国际轨道数据
星历时间: 2026-09-04T02:08:29+0800
16小时前
查看轨道信息
半长轴: 6843.588km
偏心率: 0.0000356
轨道倾角: 97.281°
近地点辐角 126.173°
升交点赤经 356.950°
平近点角 233.955°
近地点: 465.207km
远地点: 465.695km
周期: 93.904分钟
每日圈数: 15.334762
详细信息
固有亮度:
5
最大亮度:
2.5
卫星平台:
Starlink V1.0
覆盖范围:
全球
运营商:
太空探索技术公司
运营商所在国:
美国
制造商(研发单位):
太空探索技术公司
制造商所在国:
美国
使用方式:
暂无
卫星简介
Starlink 计划是 SpaceX 推出的全球卫星互联网项目,通过发射低轨道卫星,为全球尤其是偏远地区提供高速、低延迟的互联网服务。自 2019 年起,Starlink 已部署数千颗卫星,旨在缩小全球数字鸿沟,推动互联网普及。该项目还为军事、航空等行业提供通信支持,带来广泛经济效益。
2D轨道图
3D轨道图
轨道高度分析图
轨道倾角分析图
轨道综合分析图
查看轨道综合分析图
交会数据列表
事件ID 空间交会对象 最接近时刻(TCA) 交会距离 交会风险概率(CRP) 交会风险指数(CRI) 操作
CDM_260905-102906-769306-970621
2026-09-05T
10:29:13+0000
0.983 km
远距离
2.036117E-5 中风险 0.61
CDM_260831-130506-489006-769321
OBJECT Q (64890)
2026-08-31T
13:05:41+0000
1.146 km
极远距离
1.643952E-5 中风险 0.59
CDM_260831-104406-488106-769321
OBJECT F (64881)
2026-08-31T
10:44:38+0000
1.429 km
极远距离
7.670365E-6 低风险 0.53
CDM_260904-135106-238106-769321
HAWK-11C (62381)
2026-09-04T
13:51:40+0000
1.541 km
极远距离
5.880659E-6 低风险 0.5
CDM_260905-094206-769306-970621
2026-09-05T
09:42:15+0000
1.993 km
极远距离
2.124587E-6 低风险 0.42
CDM_260904-174605-114406-769321
2026-09-04T
17:46:50+0000
2.763 km
极远距离
1.472682E-6 低风险 0.38
CDM_260905-101504-738806-769321
2026-09-05T
10:15:32+0000
2.612 km
极远距离
1.141621E-6 低风险 0.36